This demonstration page uses our WeatherBlox Daily Observations layout. Learn more.

Left ArrowRight Arrow

39.08367, -84.50855

Hourly Observations for January 22, 2021

Temp ( °F °C ) Dew Point ( °F °C ) Humidity (%) Winds ( mph kmh ) Pressure ( in mb ) Visibility ( mi km ) Precip ( " mm )
12:53 am 00:53 Clear 37 2.8 25 -3.9 62 62 SW 8 13 29.88 1012 10 16.0934 0 0
1:53 am 01:53 Clear 38 3.3 24 -4.4 57 57 W 10 17 29.88 1012 10 16.0934 0 0
2:53 am 02:53 Clear 39 3.9 21 -6.1 48 48 WNW 12 19 29.9 1013 10 16.0934 0 0
3:53 am 03:53 Clear 36 2.2 21 -6.1 55 55 W 10 17 29.92 1013 10 16.0934 0 0
4:53 am 04:53 Clear 34 1.1 19 -7.2 54 54 VRB 5 7 29.93 1013 10 16.0934 0 0
5:53 am 05:53 Clear 32 0 20 -6.7 61 61 W 6 9 29.94 1014 10 16.0934 0 0
6:53 am 06:53 Clear 32 0 20 -6.7 61 61 W 3 6 29.97 1015 10 16.0934 0 0
7:53 am 07:53 Mostly Sunny 32 0 21 -6.1 64 64 WNW 8 13 29.99 1016 10 16.0934 0 0
8:53 am 08:53 Mostly Sunny 33 0.6 22 -5.6 64 64 W 10 17 30.02 1017 10 16.0934 0 0
9:53 am 09:53 Sunny 34 1.1 22 -5.6 61 61 W 13 20 30.04 1017 10 16.0934 0 0
10:53 am 10:53 Mostly Sunny 34 1.1 21 -6.1 59 59 W 10 17 30.07 1018 10 16.0934 0 0
11:53 am 11:53 Mostly Sunny 38 3.3 22 -5.6 52 52 WSW 8 13 30.08 1019 10 16.0934 0 0
12:53 pm 12:53 Partly Cloudy 38 3.3 19 -7.2 46 46 NW 12 19 30.08 1019 10 16.0934 0 0
1:53 pm 13:53 Sunny 37 2.8 19 -7.2 48 48 W 10 17 30.08 1019 10 16.0934 0 0
2:53 pm 14:53 Partly Cloudy 38 3.3 18 -7.8 44 44 W 9 15 30.08 1019 10 16.0934 0 0
3:53 pm 15:53 Sunny 39 3.9 16 -8.9 39 39 NW 10 17 30.09 1019 10 16.0934 0 0
4:53 pm 16:53 Sunny 37 2.8 16 -8.9 42 42 W 13 20 30.11 1020 10 16.0934 0 0
5:53 pm 17:53 Clear 34 1.1 16 -8.9 48 48 W 12 19 30.14 1021 10 16.0934 0 0
6:53 pm 18:53 Clear 32 0 14 -10 47 47 W 8 13 30.16 1022 10 16.0934 0 0
7:53 pm 19:53 Clear 31 -0.6 10 -12.2 42 42 NW 8 13 30.18 1022 10 16.0934 0 0
8:53 pm 20:53 Clear 29 -1.7 10 -12.2 45 45 N 8 13 30.19 1022 10 16.0934 0 0
9:53 pm 21:53 Clear 28 -2.2 10 -12.2 47 47 NW 9 15 30.22 1023 10 16.0934 0 0
10:53 pm 22:53 Clear 26 -3.3 11 -11.7 53 53 NNW 12 19 30.26 1025 10 16.0934 0 0
11:53 pm 23:53 Clear 25 -3.9 9 -12.8 50 50 NNW 8 13 30.28 1025 10 16.0934 0 0

Powered by AerisWeather